Temp
59 58 58 58 58 58 58 57 57 56 56 56 56 56 57 57 57 56 56 56 56 56 56 57 57 57 60 60 64 74 65 69 75 72 70 69 67 66 61 65 67 62 67 70 71 71 71
58 58 58 57 57 57 57 56 56 56 56 56 56 56 56 56 56 56 55 55 55 55 56 56 57 57 57 53 73 72 70 71 73 72 68 70 68 71 66 65 63 68 66 68 69 68 69
58 58 57 57 57 56 56 56 56 56 55 55 55 55 55 55 55 55 55 55 54 55 55 57 57 60 54 60 72 74 71 69 71 72 68 70 71 66 67 62 68 64 59 64 67 68 66
58 58 57 57 56 56 56 56 56 56 55 55 55 55 54 54 54 54 54 54 54 55 57 57 57 59 54 69 74 69 71 69 70 71 69 71 69 66 65 69 64 59 60 53 65 66 67
58 57 57 57 56 56 55 55 55 55 55 55 55 54 54 54 53 53 53 54 54 56 57 57 59 56 55 67 64 71 71 65 68 67 68 71 67 62 63 56 54 57 50 55 58 64 64
58 57 57 56 56 55 55 55 54 54 54 54 54 54 54 53 53 53 52 54 56 58 61 63 63 52 61 60 67 69 74 67 64 62 59 60 61 56 54 54 44 50 50 52 53 62 62
58 56 56 55 55 55 55 55 54 54 54 54 54 54 53 53 53 53 58 65 59 57 55 51 54 52 55 65 68 64 70 67 66 60 51 56 51 49 54 53 54 54 51 53 58 61 57
56 56 55 55 55 55 55 54 53 53 53 53 53 53 53 53 53 52 60 52 47 49 39 53 54 53 57 59 49 60 66 57 59 52 55 50 47 57 57 56 52 52 49 50 57 59 57
55 55 55 55 54 54 54 53 53 53 53 53 53 53 52 52 52 56 54 50 57 54 39 51 54 54 56 56 51 56 60 59 53 53 53 48 54 58 54 49 46 49 48 50 50 56 58
54 54 54 54 53 53 53 53 53 53 52 52 52 52 52 51 52 54 55 58 58 53 41 47 51 56 59 58 51 66 64 59 55 50 54 51 58 53 52 50 51 45 55 52 50 49 46
53 53 53 53 53 52 52 52 52 52 52 52 52 52 51 50 53 54 54 58 57 50 29 48 52 64 61 54 57 59 65 58 50 53 54 49 50 50 48 51 54 50 54 52 51 50 49
53 53 53 53 52 52 52 52 52 52 52 52 52 51 51 54 56 56 57 56 54 39 29 43 51 48 49 54 54 59 57 60 59 52 55 55 57 54 55 57 55 57 51 51 52 50 41
52 52 52 52 52 52 52 52 51 51 51 51 51 51 53 56 50 55 55 53 38 31 46 40 40 46 47 48 49 49 48 48 44 39 42 51 50 54 55 49 53 53 47 38 36 36 39
52 52 52 52 52 51 51 51 51 51 51 51 50 48 49 55 55 53 53 44 28 38 38 44 42 44 41 45 45 46 43 43 50 49 47 40 37 48 53 52 47 48 49 42 33 37 44
52 52 52 52 51 51 51 51 51 51 50 50 49 55 53 52 53 54 46 31 35 36 38 36 39 37 40 42 42 43 43 40 47 52 43 42 42 53 53 56 55 46 41 52 41 45 39
52 52 52 51 51 51 50 50 51 50 50 48 53 52 49 52 53 51 39 30 35 41 41 39 31 37 31 37 36 38 39 37 39 48 54 48 39 48 50 55 53 51 55 38 42 30 31
51 51 52 51 51 50 50 50 50 50 49 47 50 45 49 53 52 46 31 34 37 43 42 36 34 33 35 33 36 36 37 41 33 39 45 44 46 42 48 46 45 45 44 44 44 42 34
51 51 51 50 50 50 50 50 50 49 48 49 47 37 50 51 39 39 36 36 39 40 43 40 39 38 35 36 34 34 33 39 42 37 33 50 46 39 42 49 55 52 48 47 39 34 41
50 51 50 50 50 50 50 50 50 49 48 51 42 45 51 48 31 36 38 37 39 38 39 38 37 41 42 36 29 35 37 44 41 34 35 50 45 36 37 44 49 46 44 45 43 43 37
51 50 50 50 50 50 50 50 50 49 47 52 40 33 44 46 38 31 31 34 34 42 39 40 38 41 38 36 40 32 35 37 36 34 37 44 45 43 39 40 45 39 44 47 44 37 42
50 50 50 50 50 50 50 50 50 49 48 51 40 35 37 33 37 34 32 31 32 32 39 41 37 36 34 30 35 34 36 33 35 39 45 48 40 44 45 46 46 45 44 46 43 44 38
50 50 50 49 50 50 50 49 49 49 47 47 34 41 37 36 35 29 32 31 31 33 31 34 32 37 36 32 37 30 33 34 34 39 37 47 38 41 39 43 44 40 44 46 46 46 46
50 50 49 49 49 49 50 49 49 49 49 45 46 44 41 36 36 33 34 32 31 31 37 37 32 32 34 39 44 44 44 43 41 36 36 41 40 38 32 41 40 36 42 44 46 48 47
50 50 50 49 49 50 49 49 49 48 48 52 49 45 36 35 38 36 36 37 33 31 29 35 36 33 38 44 46 46 44 44 44 44 44 40 40 39 34 36 25 43 50 48 45 45 41
49 49 49 49 49 49 49 49 49 49 48 49 49 44 39 31 38 38 37 36 36 36 31 31 35 36 38 39 34 35 37 39 41 43 44 46 42 36 32 33 39 42 44 44 41 37 36
49 49 49 48 49 49 49 48 48 49 49 46 44 47 39 34 40 39 37 37 35 32 35 33 43 41 37 37 38 32 30 35 35 38 45 42 44 38 35 25 25 38 46 51 50 32 35
48 48 48 49 49 48 48 48 48 48 49 45 42 43 38 33 44 41 38 35 40 37 34 39 37 40 46 40 36 33 34 39 34 34 35 37 34 33 34 32 38 39 43 50 33 30 34
48 47 48 48 48 48 48 48 48 48 48 46 42 44 39 33 42 43 44 40 41 40 33 39 39 40 38 34 35 36 35 37 36 37 35 35 32 34 34 30 27 35 44 34 32 34 34
46 47 48 48 48 48 48 48 48 48 48 48 41 45 42 36 41 45 47 49 47 46 40 40 37 37 37 36 36 35 35 38 35 32 40 31 32 31 29 27 32 34 33 34 35 32 33
MSLP
1020.96 1020.99 1021.03 1021.40 1021.55 1021.66 1021.47 1021.76 1021.86 1021.83 1021.74 1021.49 1021.25 1020.91 1020.57 1020.29 1019.86 1019.64 1019.33 1018.78 1018.20 1017.72 1017.34 1016.93 1016.84 1016.49 1015.81 1013.94 1011.44 1011.30 1011.74 1011.62 1010.96 1011.20 1010.64 1009.99 1009.39 1009.31 1008.95 1008.33 1007.86 1007.46 1006.62 1006.23 1006.18 1005.98 1005.75
1020.83 1020.95 1021.09 1021.18 1021.49 1021.66 1021.65 1021.60 1021.71 1021.61 1021.65 1021.52 1021.14 1020.78 1020.45 1020.11 1019.74 1019.39 1018.77 1018.46 1017.86 1017.39 1016.62 1016.21 1016.07 1016.20 1015.33 1012.73 1010.77 1011.23 1011.49 1011.31 1010.75 1010.46 1010.31 1010.18 1009.20 1008.94 1008.77 1008.30 1007.85 1006.78 1006.90 1006.16 1006.00 1005.74 1005.61
1020.57 1020.79 1021.05 1021.09 1021.10 1021.47 1021.51 1021.55 1021.55 1021.56 1021.62 1021.33 1020.98 1020.76 1020.18 1019.71 1019.39 1018.88 1018.44 1017.69 1017.30 1016.84 1016.21 1015.62 1015.42 1015.26 1014.53 1011.61 1010.92 1010.92 1011.07 1011.11 1010.81 1010.37 1009.88 1009.84 1009.83 1009.30 1008.52 1008.38 1007.94 1007.82 1007.06 1006.27 1005.52 1005.37 1004.92
1020.31 1020.56 1020.88 1021.13 1021.21 1021.36 1021.37 1021.31 1021.10 1021.59 1021.66 1020.85 1020.97 1020.52 1020.15 1019.65 1019.10 1018.47 1017.72 1016.98 1016.80 1016.31 1015.75 1015.39 1015.24 1014.92 1012.65 1011.16 1010.92 1010.85 1010.44 1010.45 1010.51 1010.32 1010.30 1009.79 1010.12 1009.63 1008.66 1008.31 1008.08 1007.78 1006.85 1005.59 1004.48 1004.63 1004.50
1020.04 1020.39 1020.61 1020.91 1021.07 1021.08 1021.26 1021.10 1021.31 1021.21 1021.23 1021.03 1020.87 1020.40 1019.80 1019.50 1018.92 1018.19 1017.31 1016.71 1016.36 1015.97 1015.39 1015.33 1015.05 1014.51 1011.35 1011.05 1010.56 1010.13 1010.27 1010.05 1009.85 1009.99 1010.20 1009.66 1009.66 1009.47 1008.82 1008.52 1007.74 1007.09 1006.12 1004.99 1004.58 1004.90 1004.30
1019.58 1020.17 1020.44 1020.62 1020.92 1020.92 1021.04 1021.12 1021.26 1021.18 1021.19 1021.05 1020.61 1020.25 1019.63 1019.42 1018.74 1017.78 1016.86 1016.19 1015.79 1015.52 1014.97 1014.73 1014.47 1014.18 1011.45 1010.58 1010.42 1010.01 1009.69 1009.96 1009.70 1009.72 1009.88 1009.30 1009.12 1008.66 1008.43 1007.75 1006.27 1006.16 1005.98 1005.65 1004.82 1004.19 1004.11
1019.10 1019.95 1020.34 1020.44 1020.68 1020.98 1021.07 1020.87 1021.14 1021.29 1021.12 1020.87 1020.36 1020.00 1019.51 1019.41 1018.72 1017.83 1016.03 1015.15 1015.72 1014.91 1015.00 1014.31 1013.41 1013.32 1012.32 1011.05 1010.80 1009.69 1009.17 1009.15 1009.07 1009.04 1008.46 1008.56 1008.07 1006.57 1006.73 1007.35 1007.18 1006.73 1006.50 1005.34 1004.73 1004.83 1004.42
1019.03 1019.54 1020.00 1020.38 1020.48 1020.64 1020.86 1020.99 1021.31 1021.15 1021.08 1020.83 1020.23 1019.87 1019.29 1019.06 1018.63 1018.04 1016.88 1016.83 1018.64 1019.06 1016.27 1013.48 1012.75 1012.61 1012.01 1011.77 1010.95 1009.24 1009.42 1009.12 1008.16 1007.63 1007.76 1007.90 1005.82 1005.75 1006.76 1007.14 1007.31 1007.05 1006.46 1005.60 1005.21 1004.98 1004.46
1019.01 1019.20 1019.87 1020.22 1020.39 1020.57 1020.96 1020.96 1021.17 1020.95 1021.17 1020.77 1020.30 1019.89 1019.15 1018.90 1018.46 1017.92 1017.82 1018.46 1018.88 1018.77 1017.20 1012.71 1011.84 1011.31 1011.06 1011.33 1010.14 1008.92 1009.07 1008.21 1007.88 1007.02 1006.47 1005.98 1004.93 1005.26 1006.34 1006.96 1007.19 1006.53 1006.07 1005.79 1005.44 1005.04 1004.14
1019.22 1019.07 1019.60 1020.27 1020.53 1020.69 1020.85 1020.84 1020.89 1020.95 1020.80 1020.54 1020.27 1019.92 1019.46 1018.81 1018.63 1018.29 1017.87 1018.42 1018.42 1018.57 1015.86 1011.89 1010.76 1010.14 1010.23 1010.04 1009.08 1008.12 1008.27 1008.11 1006.88 1006.24 1005.97 1005.54 1005.25 1005.48 1005.70 1005.76 1006.15 1005.59 1005.71 1006.13 1005.73 1005.17 1003.22
1019.13 1019.46 1019.39 1020.14 1020.51 1020.71 1020.81 1020.67 1020.86 1020.80 1020.69 1020.44 1020.49 1020.14 1019.66 1019.19 1018.99 1018.17 1018.21 1018.37 1018.16 1018.31 1014.29 1011.07 1009.90 1009.82 1009.60 1009.29 1008.34 1007.13 1007.68 1007.33 1006.54 1005.60 1005.74 1004.68 1004.93 1004.95 1005.20 1004.86 1005.55 1005.47 1005.61 1005.78 1005.48 1004.72 1003.63
1019.20 1019.34 1019.47 1019.80 1020.34 1020.47 1020.70 1020.70 1020.71 1020.81 1020.66 1020.27 1020.34 1020.21 1019.72 1019.00 1018.79 1018.69 1018.51 1018.13 1017.82 1016.45 1012.26 1010.53 1009.99 1009.88 1009.50 1008.61 1008.14 1007.30 1007.28 1007.20 1006.54 1005.76 1005.07 1004.66 1005.07 1005.09 1004.68 1004.69 1005.41 1005.46 1005.95 1005.85 1005.40 1004.53 1002.72
1018.90 1019.63 1019.39 1019.47 1020.10 1020.40 1020.25 1020.43 1020.55 1020.50 1020.38 1020.41 1020.19 1020.18 1019.60 1019.10 1018.71 1019.01 1018.65 1017.47 1016.51 1014.31 1012.15 1011.48 1011.28 1010.89 1009.84 1008.39 1007.98 1007.81 1007.38 1006.70 1006.22 1005.75 1004.44 1004.49 1004.70 1005.14 1005.10 1005.00 1005.43 1005.64 1005.47 1004.72 1004.37 1003.67 1001.41
1018.85 1019.70 1019.44 1019.53 1019.79 1020.11 1020.36 1020.48 1020.35 1020.37 1020.22 1020.33 1020.11 1019.97 1020.03 1019.31 1019.27 1019.00 1018.33 1017.17 1015.59 1013.60 1013.21 1013.27 1012.85 1011.64 1010.38 1009.56 1008.85 1008.44 1007.55 1006.56 1005.95 1005.30 1003.94 1003.80 1004.27 1004.84 1004.77 1004.33 1004.50 1004.87 1004.52 1003.28 1002.64 1001.80 1000.66
1018.66 1019.16 1019.48 1019.62 1019.72 1019.96 1020.32 1020.30 1020.42 1020.26 1020.26 1019.79 1020.12 1019.57 1019.28 1019.76 1019.37 1018.93 1018.06 1016.77 1014.93 1014.98 1015.22 1014.62 1013.66 1012.03 1010.44 1010.18 1010.42 1009.17 1008.06 1007.54 1006.30 1005.47 1004.39 1003.44 1003.38 1004.28 1004.49 1004.33 1004.53 1004.80 1004.74 1004.33 1003.92 1002.91 1002.02
1018.48 1019.15 1019.38 1019.51 1019.66 1019.89 1020.07 1020.29 1020.49 1020.01 1020.14 1019.81 1019.86 1019.30 1019.49 1019.96 1019.61 1018.79 1018.08 1017.10 1016.33 1016.16 1015.85 1015.38 1014.39 1013.27 1012.23 1011.52 1011.55 1010.33 1009.10 1009.03 1008.13 1007.02 1005.52 1004.19 1003.77 1004.34 1004.65 1004.58 1004.85 1004.31 1004.24 1004.86 1004.30 1003.25 1001.55
1018.82 1018.98 1019.17 1019.22 1019.64 1019.77 1020.12 1020.15 1020.43 1020.20 1019.73 1019.98 1019.67 1018.96 1020.16 1020.18 1019.70 1018.71 1018.11 1017.38 1017.04 1016.63 1016.51 1015.89 1014.82 1014.11 1013.52 1012.89 1012.14 1011.17 1009.90 1009.55 1009.99 1008.81 1007.52 1005.95 1003.78 1004.24 1004.33 1003.80 1003.59 1004.54 1004.36 1004.76 1004.44 1003.79 1002.22
1018.80 1018.92 1019.01 1019.17 1019.41 1019.85 1020.09 1020.33 1020.25 1020.01 1019.97 1019.80 1019.49 1019.31 1020.32 1020.34 1019.34 1019.09 1018.26 1017.94 1017.77 1016.62 1016.44 1016.09 1015.45 1014.44 1013.75 1013.23 1012.55 1011.47 1010.38 1010.33 1010.06 1010.43 1008.55 1005.41 1003.74 1003.42 1003.64 1003.95 1003.51 1003.63 1003.80 1004.43 1004.18 1004.00 1003.39
1018.43 1018.97 1019.04 1019.23 1019.45 1019.54 1019.82 1020.36 1020.26 1020.02 1019.93 1019.59 1019.45 1019.73 1020.28 1020.27 1019.21 1018.85 1018.63 1018.15 1017.73 1016.98 1016.43 1015.91 1015.16 1014.55 1013.94 1013.64 1013.34 1011.82 1011.04 1010.34 1010.68 1010.56 1008.73 1005.53 1003.81 1003.36 1003.97 1004.48 1004.30 1003.95 1004.84 1005.13 1005.25 1004.87 1003.69
1018.30 1018.79 1018.83 1019.19 1019.33 1019.40 1019.81 1020.21 1020.06 1020.01 1020.08 1019.71 1019.95 1019.79 1019.83 1019.86 1020.31 1020.11 1019.20 1018.05 1017.42 1016.91 1016.38 1016.02 1015.41 1014.72 1014.05 1013.38 1012.97 1012.00 1011.30 1010.68 1010.30 1009.95 1008.64 1006.90 1004.29 1002.80 1002.33 1002.93 1003.65 1004.37 1004.71 1004.83 1004.81 1004.51 1003.34
1018.15 1018.53 1018.79 1018.91 1019.25 1019.41 1019.79 1019.88 1019.82 1019.93 1020.10 1019.92 1020.17 1020.21 1020.42 1019.85 1019.59 1019.92 1019.67 1019.00 1017.98 1017.06 1016.66 1016.01 1015.07 1014.61 1014.18 1013.45 1012.44 1011.90 1011.77 1011.25 1010.18 1008.91 1006.66 1005.25 1004.40 1004.06 1004.03 1004.17 1004.31 1004.44 1004.56 1004.68 1004.63 1004.62 1004.27
1017.99 1018.19 1018.51 1018.94 1019.15 1019.51 1019.70 1019.79 1019.74 1019.96 1020.30 1020.02 1020.28 1019.83 1020.70 1020.34 1020.21 1020.15 1019.38 1018.71 1018.20 1017.59 1017.44 1016.11 1015.58 1014.59 1014.17 1013.25 1012.27 1012.18 1012.02 1010.94 1009.81 1008.26 1007.62 1005.78 1005.31 1005.04 1004.93 1005.07 1004.97 1004.85 1004.88 1004.86 1004.77 1004.90 1004.72
1017.68 1018.02 1018.50 1018.82 1019.11 1019.35 1019.55 1019.59 1019.74 1019.98 1020.25 1020.02 1020.35 1020.72 1020.56 1020.03 1019.47 1019.26 1018.65 1018.61 1018.26 1018.23 1016.93 1016.69 1016.05 1014.84 1013.65 1012.59 1011.90 1011.73 1011.43 1010.75 1010.44 1009.63 1008.52 1007.23 1006.37 1005.85 1005.57 1005.56 1005.37 1005.00 1005.03 1005.06 1005.24 1005.56 1005.77
1017.54 1017.92 1018.31 1018.64 1018.96 1019.06 1019.31 1019.46 1019.66 1019.94 1020.15 1019.95 1019.98 1020.36 1020.45 1019.61 1019.06 1018.61 1018.42 1018.20 1017.96 1018.05 1017.43 1016.39 1015.75 1014.62 1013.85 1013.29 1012.17 1011.02 1010.67 1009.81 1009.46 1009.04 1008.69 1007.76 1007.10 1006.99 1006.58 1006.43 1005.59 1005.43 1005.79 1005.98 1006.39 1007.20 1008.39
1017.30 1017.74 1018.10 1018.36 1018.62 1018.91 1019.10 1019.31 1019.49 1019.75 1020.30 1020.08 1020.43 1020.45 1020.36 1019.82 1018.95 1018.25 1017.98 1017.76 1017.68 1017.25 1016.92 1016.35 1015.85 1015.32 1014.36 1013.22 1011.76 1010.21 1009.40 1008.76 1008.28 1008.40 1008.13 1008.09 1007.75 1007.55 1007.14 1006.65 1006.47 1006.42 1006.92 1007.10 1007.41 1009.13 1010.46
1016.94 1017.44 1017.86 1018.24 1018.34 1018.70 1018.92 1019.14 1019.26 1019.46 1019.92 1020.47 1020.70 1020.78 1021.05 1020.20 1018.35 1018.48 1018.06 1017.66 1017.14 1016.86 1016.06 1015.89 1015.02 1014.53 1014.21 1012.85 1010.98 1009.59 1008.91 1008.63 1008.13 1008.24 1008.68 1008.81 1008.56 1008.28 1008.30 1007.91 1007.43 1008.02 1008.15 1008.13 1008.11 1010.02 1011.89
1016.73 1017.16 1017.52 1017.74 1018.11 1018.49 1018.78 1018.93 1019.16 1019.32 1019.57 1020.21 1020.48 1020.99 1021.23 1020.42 1018.60 1018.54 1017.83 1017.79 1017.48 1017.19 1016.57 1015.35 1014.82 1013.81 1012.82 1011.70 1010.64 1010.13 1009.51 1009.41 1008.81 1008.71 1009.03 1009.30 1009.69 1009.51 1009.53 1009.45 1009.21 1010.74 1010.18 1008.74 1009.81 1013.34 1013.74
1016.51 1016.92 1017.11 1017.42 1017.78 1018.22 1018.46 1018.74 1018.98 1019.11 1019.37 1019.77 1020.19 1020.67 1021.02 1020.65 1019.01 1018.57 1018.12 1017.66 1017.30 1017.20 1016.73 1015.94 1014.88 1014.48 1013.56 1012.63 1011.95 1011.38 1010.67 1010.49 1010.22 1010.27 1010.31 1010.23 1010.49 1010.41 1011.05 1011.41 1012.16 1013.18 1011.45 1012.32 1014.60 1014.92 1015.39
1016.38 1016.57 1016.86 1017.26 1017.65 1017.97 1018.23 1018.43 1018.68 1018.88 1019.10 1019.44 1019.90 1020.47 1020.95 1020.91 1019.28 1018.88 1018.16 1017.59 1017.49 1017.48 1017.49 1016.65 1016.35 1015.84 1015.87 1014.78 1013.93 1013.09 1011.83 1011.28 1011.13 1010.59 1011.42 1011.90 1013.06 1013.02 1013.79 1014.46 1015.35 1015.71 1015.78 1016.25 1016.18 1016.43 1016.72
Wind_Speed
11 9 10 8 8 5 4 3 3 6 8 8 9 10 12 14 16 18 20 19 22 22 22 20 15 9 7 6 10 4 2 3 4 6 8 9 12 13 16 12 17 19 20 15 16 16 18
11 10 9 9 6 4 4 5 4 5 6 8 10 11 12 14 17 19 21 22 22 23 22 20 10 3 5 10 4 0 4 7 6 8 8 10 7 10 13 14 15 9 12 16 12 16 17
12 11 10 9 8 6 5 4 3 5 5 7 9 10 12 14 17 20 23 23 24 23 21 15 4 8 7 14 4 8 11 11 8 10 11 10 11 9 2 12 12 12 16 17 17 17 19
14 12 11 9 8 6 3 3 3 2 3 7 9 11 13 16 18 21 24 23 23 20 10 2 9 6 9 2 8 10 6 10 12 15 13 8 4 13 15 11 11 10 14 15 9 10 11
14 12 11 10 8 6 2 3 4 3 5 7 9 11 13 16 18 21 23 23 19 8 2 9 5 6 8 3 4 2 3 7 4 8 11 6 5 13 10 15 15 14 16 14 11 11 7
16 12 11 12 8 5 3 8 6 4 4 7 10 13 14 16 19 19 23 16 4 6 6 7 2 8 6 4 11 10 10 7 6 6 7 11 9 12 14 14 16 15 18 12 14 6 10
16 14 12 9 7 4 4 7 5 3 5 8 10 12 14 16 20 18 14 1 4 6 5 8 17 17 22 13 16 12 11 11 12 9 14 16 15 19 22 20 17 12 14 15 9 7 17
16 13 11 9 9 6 6 6 3 4 5 7 10 12 14 17 18 14 9 7 5 7 12 17 17 16 19 10 8 8 8 10 18 18 15 11 23 20 15 14 17 20 21 20 17 13 14
15 14 12 10 8 6 4 4 3 4 5 8 11 13 15 18 8 3 7 9 6 5 7 9 3 6 3 6 5 6 4 9 22 20 19 20 3 16 17 16 18 19 18 14 14 14 19
15 15 13 9 8 8 6 6 4 3 5 8 10 12 14 18 3 6 3 10 9 3 7 3 3 4 1 6 7 12 6 10 13 26 21 18 19 7 15 19 16 17 14 14 14 10 8
17 15 13 11 9 7 5 5 4 4 5 7 10 11 11 10 5 3 7 11 9 5 8 4 4 6 11 5 15 1 4 8 19 21 15 16 10 18 16 13 14 13 5 10 9 10 13
16 16 14 11 9 7 5 6 5 4 6 7 8 9 11 2 2 6 10 13 4 8 9 3 2 6 13 15 11 9 5 7 9 17 20 21 2 10 14 14 12 5 7 8 8 9 11
16 13 12 11 9 5 6 6 5 4 5 8 8 9 5 3 5 9 9 4 7 8 5 4 8 13 18 16 12 7 8 8 10 13 19 19 13 5 8 11 9 15 11 6 8 6 7
14 12 12 10 9 8 7 6 4 4 5 8 9 5 3 5 6 7 4 5 9 4 7 14 17 21 18 9 8 11 6 9 12 15 12 17 16 14 10 12 9 16 13 6 8 7 4
12 11 11 9 9 7 6 5 4 3 4 7 7 1 3 7 6 3 4 5 7 7 6 10 18 15 9 3 11 10 10 10 9 17 15 17 17 10 11 10 11 9 9 5 6 5 6
11 10 13 12 8 7 6 4 3 3 4 5 2 1 7 7 5 3 3 4 5 6 11 10 14 9 12 17 16 12 10 6 12 10 11 7 11 12 10 11 6 7 9 5 5 6 7
7 11 12 9 7 7 5 4 2 2 3 1 1 2 4 7 5 2 1 3 8 6 8 6 10 14 16 18 14 15 8 8 3 13 12 9 8 12 12 12 16 8 8 5 3 4 4
8 9 12 9 7 6 5 4 3 3 3 1 1 2 3 6 2 0 2 5 8 9 7 10 9 13 12 11 12 10 9 8 8 11 11 11 5 11 12 6 6 6 6 9 5 6 1
10 8 8 8 6 4 7 5 3 2 1 1 3 2 2 4 1 2 3 7 7 12 10 5 9 10 11 12 7 10 10 8 13 5 9 6 7 9 9 6 4 7 3 5 5 0 7
12 10 8 8 7 7 8 6 4 3 6 1 2 2 2 1 3 5 7 5 8 8 13 8 12 15 15 12 9 11 13 11 14 13 21 17 2 4 6 8 9 6 10 8 7 5 4
12 11 9 8 6 10 8 4 5 5 8 1 2 2 3 1 3 7 5 6 12 9 4 14 7 8 12 7 12 13 9 10 10 11 3 2 9 10 9 8 4 5 7 9 9 7 6
13 11 8 7 11 8 7 6 5 9 7 1 3 1 3 2 4 4 2 5 10 12 8 13 10 19 19 14 14 16 14 13 5 12 10 12 5 5 6 4 3 3 5 8 8 8 8
12 11 9 7 8 8 8 7 7 12 5 2 2 3 2 2 3 4 3 6 15 12 10 11 18 18 13 13 10 13 14 17 13 9 7 5 2 2 4 2 5 5 3 1 1 5 9
12 12 11 9 9 11 9 8 8 15 7 1 2 3 1 1 4 6 10 12 11 13 14 18 12 4 6 13 12 13 13 16 11 9 6 3 6 4 2 4 3 9 6 5 7 11 13
12 11 12 12 8 10 8 7 7 13 13 3 3 2 2 3 6 5 9 11 12 8 12 12 9 8 12 8 4 4 2 3 4 6 3 3 1 3 1 2 3 7 8 8 10 5 11
13 13 12 12 9 9 8 7 5 7 16 4 3 2 1 4 1 5 11 6 10 12 10 3 12 5 3 4 4 2 3 3 3 4 6 2 2 4 0 2 2 8 13 14 11 3 12
14 13 12 14 12 10 9 7 6 5 7 5 2 6 2 3 5 4 7 9 7 9 7 9 15 9 10 3 2 4 4 4 2 2 2 3 3 3 2 3 4 11 18 23 3 8 9
12 11 8 14 12 10 9 8 7 6 6 8 2 8 4 3 8 8 10 9 7 5 7 10 6 8 7 8 5 4 4 5 3 4 5 4 3 2 3 4 3 20 5 7 6 6 7
8 11 11 11 11 10 10 9 8 9 9 11 3 5 3 2 7 5 11 14 13 12 7 5 5 4 3 4 5 4 2 2 5 2 6 2 6 5 6 4 7 9 10 9 10 9 9
Wind_Direction
164 140 148 149 138 123 99 68 44 23 24 23 10 356 346 337 332 329 325 324 322 321 316 312 306 307 291 259 262 91 336 324 165 193 236 205 206 221 236 244 242 246 257 252 252 250 258
169 160 155 149 144 129 100 88 78 37 22 12 7 1 352 344 335 325 324 321 318 318 315 312 296 229 250 269 56 310 353 310 231 209 217 232 229 232 272 260 246 274 267 257 254 250 256
176 168 163 154 147 139 120 108 76 52 19 6 5 356 353 343 332 328 324 321 320 317 313 311 207 194 234 261 333 304 284 275 263 241 225 227 256 238 244 255 254 272 263 261 252 253 247
175 171 168 161 152 146 131 143 108 63 2 8 352 354 346 339 334 328 323 318 315 312 310 6 168 184 258 248 307 289 281 270 245 241 238 242 270 262 254 259 254 262 258 264 253 242 248
183 179 176 172 151 130 68 219 158 97 11 356 346 343 343 340 334 326 317 317 312 298 138 145 200 253 272 162 242 332 294 295 287 222 218 205 202 239 220 235 249 237 264 245 261 220 269
175 181 165 152 129 117 117 100 100 68 16 346 342 339 344 343 338 330 321 315 322 186 225 228 214 254 218 344 329 299 310 270 253 151 192 192 206 216 218 225 229 238 239 254 252 207 270
163 152 150 136 133 151 149 112 99 57 7 348 346 347 350 347 343 343 336 304 320 190 346 277 295 297 283 293 304 275 272 247 240 219 210 196 203 215 217 216 243 262 268 266 266 269 292
149 151 149 145 141 133 122 109 85 31 360 352 354 350 354 347 343 345 13 65 47 318 302 287 264 256 265 281 293 303 263 244 227 223 204 188 225 218 228 238 238 243 255 263 277 282 269
155 152 153 150 140 130 122 100 71 57 9 2 358 354 356 342 340 359 37 53 337 305 274 296 258 267 307 183 272 294 228 229 241 234 210 216 244 213 215 215 220 231 243 255 267 287 279
164 155 151 146 136 128 120 105 82 44 16 6 358 359 359 332 248 351 63 357 342 254 274 206 201 169 110 246 240 289 231 248 228 234 225 233 233 185 195 218 217 238 218 245 252 261 262
163 158 148 147 141 135 128 117 92 48 21 5 357 4 2 2 339 339 344 333 329 217 282 96 138 119 328 301 308 321 265 240 251 221 219 221 216 213 223 213 208 240 177 220 231 254 279
166 162 152 150 149 142 130 109 88 45 10 356 354 353 340 175 274 335 331 317 230 237 247 146 287 328 322 318 318 286 291 221 277 249 222 234 206 203 224 224 202 139 191 222 239 250 250
154 160 154 154 151 141 151 123 91 50 360 340 349 346 338 317 358 332 321 271 233 244 49 23 340 327 313 318 313 314 308 252 252 212 214 219 199 171 172 144 182 193 194 200 206 201 250
159 161 150 149 149 132 119 110 91 51 357 333 348 342 59 37 339 328 293 222 248 359 318 351 333 317 299 355 325 320 286 308 235 234 227 199 199 202 178 198 176 199 205 241 227 206 177
158 163 158 149 141 131 128 108 93 58 353 347 313 77 68 14 348 307 257 232 330 349 351 328 319 309 290 219 347 315 297 276 253 211 232 210 226 190 189 191 182 171 215 270 266 242 268
165 179 163 144 137 141 132 112 102 68 353 24 351 135 47 350 332 278 253 297 288 326 323 316 297 290 314 314 317 323 298 69 325 277 309 246 183 189 161 168 166 215 149 180 209 219 224
158 195 157 139 152 145 141 127 100 54 55 53 203 142 64 348 295 250 297 312 299 320 323 309 309 298 294 299 292 299 270 322 70 327 324 255 225 164 162 200 171 169 190 221 261 254 312
152 166 148 136 151 166 147 128 108 112 114 35 59 106 51 322 200 301 286 331 327 309 311 275 278 270 275 293 297 295 276 290 32 336 299 211 254 163 172 98 188 194 191 193 245 144 190
161 161 156 160 169 158 149 143 120 116 147 121 64 65 115 280 12 353 339 301 280 302 316 286 281 275 289 294 296 290 296 301 317 324 271 226 214 150 141 142 175 198 145 136 105 349 225
170 171 167 180 187 170 158 157 138 127 134 50 117 134 144 108 52 353 335 324 314 307 296 271 277 286 278 274 260 272 291 323 314 270 252 278 171 246 182 125 136 168 179 182 193 221 288
175 175 179 185 194 163 169 173 165 156 139 211 28 84 26 39 119 331 321 294 314 328 296 301 274 270 308 284 287 252 279 274 274 326 255 249 114 98 86 106 133 172 194 194 211 248 268
173 162 181 208 169 178 178 171 159 153 141 101 132 245 164 278 264 289 289 322 313 325 310 304 279 309 309 279 269 298 307 302 13 343 6 352 87 58 98 112 142 258 251 261 262 285 273
174 174 183 171 179 188 188 183 160 158 192 140 129 105 312 129 267 273 14 307 317 317 298 308 297 287 267 272 284 276 282 279 274 318 331 22 22 77 102 64 323 252 99 337 277 300 316
185 186 185 195 209 212 206 187 176 173 206 189 121 131 186 306 281 322 308 308 319 322 298 309 333 306 26 326 296 264 254 265 263 271 263 340 43 11 119 239 150 81 50 60 360 48 12
173 198 196 202 195 199 194 195 199 188 196 220 147 193 231 284 302 301 325 323 316 314 290 303 325 285 301 294 250 224 222 234 53 32 259 314 287 119 327 339 30 137 44 359 337 38 15
196 202 197 207 199 201 193 199 193 193 197 174 188 141 213 290 162 314 320 327 337 343 328 277 336 308 246 264 267 351 61 356 80 96 47 60 341 322 298 286 132 47 345 323 298 137 6
193 202 220 200 195 192 194 192 203 213 201 167 140 144 166 254 286 273 332 329 329 335 307 313 345 349 337 331 31 22 61 333 39 45 86 124 105 259 150 294 99 355 324 301 316 12 15
199 197 212 192 189 190 195 202 215 223 208 178 127 178 184 226 279 249 270 282 311 321 325 332 309 18 359 14 1 10 9 33 259 46 336 1 310 155 177 244 149 357 2 26 340 45 32
195 212 200 195 196 197 203 212 227 233 211 185 160 178 143 225 305 317 279 275 272 273 283 312 324 337 2 332 11 306 344 340 336 62 35 71 18 346 24 50 55 37 52 42 41 52 39